FREGAT DEB, 45889

Orbit data source: Space-Track

FREGAT DEB, 45889 is space debris in LEO originally from a launch on Mon, 18 Jul 2011 UTC launched from the Tyuratam Missile And Space Complex (TTMTR). Debris objects in space refer to the collection of defunct objects orbiting the Earth. Examples of debris include non-operational satellites, rocket bodies, and fragments generated from explosions, collisions, or faulty payload assembly.

Loading next visibility...
Identifier
45889, 2011-037DJ
Orbit
LEO
Country
Flag of CISCIS
Related business
Manufacturer
Lavochkin
Mission
Spacecraft
Bus & Motor
Unknown
Mass
Unknown
Launch date (UTC)
2011-07-18 (14 years ago)
Launch vehicle
Unknown
Launch site
Tyuratam Missile And Space Complex (TTMTR)
Object type
Payload
Rocket body
Debris
Shape & HBR
Unknown shape, 0.1 m
Radar Cross Section
Small (<0.1 m²)

Expand to show TLE details & history
Last TLE update: 1 day ago

TLE from 1 day ago
0 FREGAT DEB
1 45889U 11037DJ  25309.54711026  .00136382  00000-0  13627-1 0  9994
2 45889  51.3277 143.9406 0753162 352.1430   6.8204 13.78381204231957
Epoch: 2025-11-05T13:07Z
TLE epoch observation values (Epoch: 2025-11-05T13:07:50.326Z)
Latitude
-0.00001°
Longitude
-98.03732°
Altitude
421.487 km
Speed
7.94 km/s
True Right ascension
09h 35m 45s
True Declination
0° 00' 00"
Sunlit
Object was in daylight at epoch
Visualization orbit readout
Latitude
Unknown
Longitude
Unknown
Altitude
Unknown
Speed
Unknown
Apparent Right ascension
Unknown
Apparent Declination
Unknown
Sunlit
N/A
Visualization observer readout
Local Sidereal Time
15:40:41
Azimuth
Unknown
Elevation
Unknown
Doppler factor
Unknown
Orbital elements
Apogee altitude
1,523.602 km
Perigee altitude
416.711 km
Semi-major axis
7,348.294 km
Eccentricity
0.07532
Inclination
51.3277°
RAAN
143.9406°
Arg. of periapsis
352.143°
True anomaly
7.95047°
Mean anomaly
6.8204°
Eccentric anomaly
7.37427°
Mean motion
3.44559 °/min
Orbital period
104.48 mins
BSTAR
0.013627
Loading maneuver chart data...
Computing Atmospheric mass density...
Loading historical data...
Loading historical data...
Loading historical data...
Loading historical data...
Loading historical data...
Loading historical data...
Loading historical data...

Documentation

Showing up to 5 results
|